Regional Weather Roundup
Issued by NWS

Home | Current Version | Previous Version | Text Only | Print | Product List | Glossary Off
Versions: 1 2 3 4 5 6 7 8 9 10 11 12 13 14 15 16 17 18 19 20 21 22 23 24 25 26 27 28 29 30 31 32 33 34 35 36 37 38 39 40 41 42 43 44 45 46 47 48 49 50

000
ASUS43 KLOT 161300
RWRIL

ILLINOIS REGIONAL WEATHER ROUNDUP
NATIONAL WEATHER SERVICE CHICAGO/ROMEOVILLE IL
800 AM CDT WED APR 16 2014

NOTE: "FAIR" INDICATES FEW OR NO CLOUDS BELOW 12,000 FEET WITH NO
SIGNIFICANT WEATHER AND/OR OBSTRUCTIONS TO VISIBILITY.

* THESE STATIONS ARE NOT UNDER NWS QUALITY CONTROL. THEY ALSO MAY NOT
  REPORT WEATHER SUCH AS PRECIPITATION OR FOG.

ILZ001-002-007-009-015-016-024-161400-
NORTHWEST ILLINOIS

CITY           SKY/WX    TMP DP  RH WIND       PRES   REMARKS
MOLINE         PTSUNNY   35  24  64 SE13      30.16R WCI  26
STERLING*      MOSUNNY   36  27  69 SE8       30.21R WCI  29
$$

ILZ003-004-008-010-011-017-018-161400-
NORTH CENTRAL ILLINOIS

CITY           SKY/WX    TMP DP  RH WIND       PRES   REMARKS
ROCKFORD       PTSUNNY   33  24  69 SE12      30.26R WCI  24
$$

ILZ005-006-012>014-019>023-161400-
NORTHEAST ILLINOIS

CITY           SKY/WX    TMP DP  RH WIND       PRES   REMARKS
CHICAGO-OHARE  MOSUNNY   34  21  59 S12       30.29R WCI  25
CHICAGO-MIDWAY MOSUNNY   35  20  54 S12       30.31R WCI  27
AURORA         PTSUNNY   33  25  72 SE13      30.28R WCI  24
WAUKEGAN       SUNNY     34  21  59 S13       30.29R WCI  25
DUPAGE AIRPORT SUNNY     33  24  69 S12       30.27R WCI  24
WHEELING       SUNNY     35  22  58 S13       30.30R WCI  26
NORTHERLY ISL    N/A     34  20  57 S8          N/A  WCI  27
$$

LMZ740>746-161400-
SOUTHERN LAKE MICHIGAN

STATION/POSITION SKY/WX   TEMP    WIND        PRES    VSBY  WAVE
                          AIR SEA DIR/SP/G                  HT/PER
                          (F)     (DEG/KT/KT) (MB)    (MI)  (FT/S)
WAUKEGAN HARBOR            36     180/ 16/ 19 1026.8R
HARRISON CRIB              34     170/ 22/ 26   N/A
BURNHAM HARBOR             34     170/  9/ 12   N/A
CALUMET HARBOR             32     150/  8/ 12 1027.1R
MICHIGAN CITY              30     140/ 11/ 14   N/A
$$

ILZ025>027-034>036-040-047-049-050-058-095>099-161400-
WEST-CENTRAL ILLINOIS

CITY           SKY/WX    TMP DP  RH WIND       PRES   REMARKS
QUINCY         MOSUNNY   40  23  50 S17       30.14R
$$

ILZ028>032-037-038-041>044-048-051>054-059>061-161400-
CENTRAL ILLINOIS

CITY           SKY/WX    TMP DP  RH WIND       PRES   REMARKS
DECATUR        SUNNY     37  27  67 S15G21    30.29R WCI  28
PEORIA         SUNNY     38  23  55 S18       30.23R WCI  28
SPRINGFIELD    SUNNY     40  24  53 S18       30.26R
TAYLORVILLE    NOT AVBL
$$

ILZ033-039-045-046-055>057-062-063-161400-
EAST-CENTRAL ILLINOIS

CITY           SKY/WX    TMP DP  RH WIND       PRES   REMARKS
CHAMPAIGN      SUNNY     34  26  72 SE13      30.30R WCI  25
MATTOON        SUNNY     35  24  64 SE15      30.30R WCI  25
$$

ILZ079-100>102-161400-
SOUTHWEST ILLINOIS

CITY           SKY/WX    TMP DP  RH WIND       PRES   REMARKS
ALTON          MOSUNNY   39  23  52 S21       30.26R WCI  29
BELLEVILLE     MOSUNNY   39  26  61 SE14      30.27R WCI  30
CAHOKIA*       MOSUNNY   39  27  62 S12       30.26R WCI  32
$$

ILZ064>066-069>071-074>076-080>082-084>086-088>090-092>094-161400-
SOUTH-CENTRAL ILLINOIS

CITY           SKY/WX    TMP DP  RH WIND       PRES   REMARKS
CARBONDALE     PTSUNNY   38  27  64 SE9       30.31R WCI  31
MARION         MOSUNNY   37  25  60 SE12      30.32R WCI  30
MT. VERNON     MOSUNNY   36  19  51 SE8       30.32R WCI  29
$$

ILZ067-068-072-073-078-083-087-091-161400-
SOUTHEAST ILLINOIS

CITY           SKY/WX    TMP DP  RH WIND       PRES   REMARKS
$$

ABBREVIATIONS USED IN REMARKS
   TC - TEMPERATURE IN CELSIUS
  WCI - WIND CHILL INDEX
   HX - HEAT INDEX
  VSB - VISIBILITY
$$




USA.gov is the U.S. government's official web portal to all federal, state and local government web resources and services.